Time,TemperatureF,DewpointF,PressureIn,WindDirection,WindDirectionDegrees,WindSpeedMPH,WindSpeedGustMPH,Humidity,HourlyPrecipIn,Conditions,Clouds,dailyrainin,SoftwareType,DateUTC
2013-06-12 00:03:00,77.0,64.0,-100.00,SW,235,9.0,12.0,63,0.00,,,-99.99,,2013-06-12 04:03:00,
2013-06-12 00:13:00,77.0,63.0,-100.00,West,270,7.0,11.0,63,0.00,,,-99.99,,2013-06-12 04:13:00,
2013-06-12 00:23:00,76.0,63.0,-100.00,WSW,250,9.0,13.0,64,0.00,,,-99.99,,2013-06-12 04:23:00,
2013-06-12 00:33:00,76.0,64.0,-100.00,WSW,240,9.0,14.0,64,0.00,,,-99.99,,2013-06-12 04:33:00,
2013-06-12 00:42:00,76.0,64.0,-100.00,SW,235,6.0,14.0,65,0.00,,,-99.99,,2013-06-12 04:42:00,
2013-06-12 00:52:00,76.0,63.0,-100.00,WSW,245,9.0,12.0,65,0.00,,,-99.99,,2013-06-12 04:52:00,
2013-06-12 01:03:00,75.0,64.0,-100.00,WSW,255,7.0,12.0,67,0.00,,,-99.99,,2013-06-12 05:03:00,
2013-06-12 01:12:00,75.0,64.0,-100.00,WSW,245,7.0,11.0,68,0.00,,,-99.99,,2013-06-12 05:12:00,
2013-06-12 01:22:00,74.0,64.0,-100.00,WSW,245,7.0,11.0,69,0.00,,,-99.99,,2013-06-12 05:22:00,
2013-06-12 01:32:00,74.0,64.0,-100.00,WSW,255,6.0,11.0,69,0.00,,,-99.99,,2013-06-12 05:32:00,
2013-06-12 01:42:00,74.0,64.0,-100.00,West,260,7.0,10.0,70,0.00,,,-99.99,,2013-06-12 05:42:00,
2013-06-12 01:52:00,73.0,64.0,-100.00,WSW,250,7.0,9.0,71,0.00,,,-99.99,,2013-06-12 05:52:00,
2013-06-12 02:02:00,73.0,64.0,-100.00,WSW,245,5.0,9.0,71,0.00,,,-99.99,,2013-06-12 06:02:00,
2013-06-12 02:12:00,73.0,64.0,-100.00,WSW,245,6.0,8.0,72,0.00,,,-99.99,,2013-06-12 06:12:00,
2013-06-12 02:22:00,73.0,64.0,-100.00,WSW,250,5.0,7.0,72,0.00,,,-99.99,,2013-06-12 06:22:00,
2013-06-12 02:32:00,73.0,64.0,-100.00,West,275,5.0,7.0,73,0.00,,,-99.99,,2013-06-12 06:32:00,
2013-06-12 02:42:00,73.0,64.0,-100.00,WSW,250,6.0,7.0,73,0.00,,,-99.99,,2013-06-12 06:42:00,
2013-06-12 02:52:00,73.0,64.0,-100.00,West,260,4.0,6.0,74,0.00,,,-99.99,,2013-06-12 06:52:00,
2013-06-12 03:02:00,73.0,64.0,-100.00,West,260,4.0,6.0,73,0.00,,,-99.99,,2013-06-12 07:02:00,
2013-06-12 03:12:00,72.0,64.0,-100.00,WSW,245,3.0,5.0,74,0.00,,,-99.99,,2013-06-12 07:12:00,
2013-06-12 03:22:00,72.0,64.0,-100.00,WSW,245,4.0,6.0,75,0.00,,,-99.99,,2013-06-12 07:22:00,
2013-06-12 03:33:00,72.0,64.0,-100.00,WSW,255,3.0,6.0,75,0.00,,,-99.99,,2013-06-12 07:33:00,
2013-06-12 03:43:00,72.0,64.0,-100.00,WNW,285,4.0,6.0,75,0.00,,,-99.99,,2013-06-12 07:43:00,
2013-06-12 03:53:00,72.0,64.0,-100.00,West,270,4.0,9.0,75,0.00,,,-99.99,,2013-06-12 07:53:00,
2013-06-12 04:02:00,71.0,63.0,-100.00,West,270,2.0,8.0,75,0.00,,,-99.99,,2013-06-12 08:02:00,
2013-06-12 04:12:00,72.0,63.0,-100.00,NW,305,3.0,7.0,74,0.00,,,-99.99,,2013-06-12 08:12:00,
2013-06-12 04:22:00,72.0,63.0,-100.00,WNW,300,4.0,7.0,73,0.00,,,-99.99,,2013-06-12 08:22:00,
2013-06-12 04:33:00,72.0,63.0,-100.00,NW,310,4.0,8.0,73,0.00,,,-99.99,,2013-06-12 08:33:00,
2013-06-12 04:43:00,72.0,63.0,-100.00,NW,310,4.0,7.0,74,0.00,,,-99.99,,2013-06-12 08:43:00,
2013-06-12 04:53:00,71.0,63.0,-100.00,NW,305,4.0,7.0,76,0.00,,,-99.99,,2013-06-12 08:53:00,
2013-06-12 05:01:00,71.0,63.0,-100.00,NW,305,4.0,7.0,76,0.00,,,-99.99,,2013-06-12 09:01:00,
2013-06-12 05:11:00,71.0,63.0,-100.00,WNW,285,6.0,8.0,77,0.00,,,-99.99,,2013-06-12 09:11:00,
2013-06-12 05:22:00,71.0,63.0,-100.00,West,275,6.0,13.0,75,0.00,,,-99.99,,2013-06-12 09:22:00,
2013-06-12 05:33:00,71.0,62.0,-100.00,WNW,295,6.0,10.0,74,0.00,,,-99.99,,2013-06-12 09:33:00,
2013-06-12 05:42:00,71.0,62.0,-100.00,WNW,295,7.0,11.0,75,0.00,,,-99.99,,2013-06-12 09:42:00,
2013-06-12 05:53:00,70.0,62.0,-100.00,WNW,300,7.0,11.0,75,0.00,,,-99.99,,2013-06-12 09:53:00,
2013-06-12 06:02:00,70.0,62.0,-100.00,WNW,295,7.0,10.0,77,0.00,,,-99.99,,2013-06-12 10:02:00,
2013-06-12 06:12:00,70.0,62.0,-100.00,WNW,295,7.0,10.0,77,0.00,,,-99.99,,2013-06-12 10:12:00,
2013-06-12 06:23:00,70.0,62.0,-100.00,NW,305,4.0,11.0,77,0.00,,,-99.99,,2013-06-12 10:23:00,
2013-06-12 06:33:00,70.0,62.0,-100.00,NW,305,5.0,9.0,77,0.00,,,-99.99,,2013-06-12 10:33:00,
2013-06-12 06:43:00,71.0,62.0,-100.00,NW,305,2.0,7.0,74,0.00,,,-99.99,,2013-06-12 10:43:00,
2013-06-12 06:53:00,70.0,62.0,-100.00,SE,130,2.0,6.0,75,0.00,,,-99.99,,2013-06-12 10:53:00,
2013-06-12 07:02:00,71.0,62.0,-100.00,East,90,1.0,5.0,74,0.00,,,-99.99,,2013-06-12 11:02:00,
2013-06-12 07:12:00,71.0,62.0,-100.00,ENE,65,2.0,6.0,74,0.00,,,-99.99,,2013-06-12 11:12:00,
2013-06-12 07:24:00,71.0,62.0,-100.00,ESE,115,1.0,6.0,75,0.00,,,-99.99,,2013-06-12 11:24:00,
2013-06-12 07:33:00,71.0,62.0,-100.00,NW,315,4.0,7.0,74,0.00,,,-99.99,,2013-06-12 11:33:00,
2013-06-12 07:43:00,71.0,63.0,-100.00,West,270,2.0,7.0,75,0.00,,,-99.99,,2013-06-12 11:43:00,
2013-06-12 07:53:00,70.0,62.0,-100.00,WNW,285,3.0,9.0,75,0.00,,,-99.99,,2013-06-12 11:53:00,
2013-06-12 08:02:00,70.0,62.0,-100.00,WNW,285,3.0,9.0,75,0.00,,,-99.99,,2013-06-12 12:02:00,
2013-06-12 08:11:00,71.0,63.0,-100.00,West,265,4.0,8.0,75,0.00,,,-99.99,,2013-06-12 12:11:00,
2013-06-12 08:23:00,72.0,63.0,-100.00,WNW,300,3.0,7.0,74,0.00,,,-99.99,,2013-06-12 12:23:00,
2013-06-12 08:33:00,72.0,62.0,-100.00,NW,305,4.0,9.0,70,0.00,,,-99.99,,2013-06-12 12:33:00,
2013-06-12 08:42:00,72.0,62.0,-100.00,East,90,4.0,7.0,71,0.00,,,-99.99,,2013-06-12 12:42:00,
2013-06-12 08:53:00,73.0,62.0,-100.00,East,85,2.0,6.0,69,0.00,,,-99.99,,2013-06-12 12:53:00,
2013-06-12 09:01:00,73.0,62.0,-100.00,East,85,2.0,6.0,69,0.00,,,-99.99,,2013-06-12 13:01:00,
2013-06-12 09:12:00,74.0,62.0,-100.00,ESE,120,2.0,7.0,65,0.00,,,-99.99,,2013-06-12 13:12:00,
2013-06-12 09:22:00,74.0,62.0,-100.00,NNE,20,2.0,4.0,66,0.00,,,-99.99,,2013-06-12 13:22:00,
2013-06-12 09:33:00,73.0,61.0,-100.00,NE,40,4.0,7.0,67,0.00,,,-99.99,,2013-06-12 13:33:00,
2013-06-12 09:43:00,73.0,61.0,-100.00,NNE,20,4.0,7.0,66,0.00,,,-99.99,,2013-06-12 13:43:00,
2013-06-12 09:53:00,73.0,62.0,-100.00,NE,55,3.0,6.0,68,0.00,,,-99.99,,2013-06-12 13:53:00,
2013-06-12 10:02:00,72.0,61.0,-100.00,NNE,30,6.0,9.0,67,0.00,,,-99.99,,2013-06-12 14:02:00,
2013-06-12 10:11:00,72.0,61.0,-100.00,NNE,30,6.0,9.0,67,0.00,,,-99.99,,2013-06-12 14:11:00,
2013-06-12 10:24:00,74.0,61.0,-100.00,NNE,30,2.0,6.0,65,0.00,,,-99.99,,2013-06-12 14:24:00,
2013-06-12 10:33:00,73.0,60.0,-100.00,NNE,20,4.0,7.0,64,0.00,,,-99.99,,2013-06-12 14:33:00,
2013-06-12 10:43:00,73.0,60.0,-100.00,SE,125,3.0,6.0,64,0.00,,,-99.99,,2013-06-12 14:43:00,
2013-06-12 10:53:00,74.0,62.0,-100.00,SSE,150,2.0,6.0,65,0.00,,,-99.99,,2013-06-12 14:53:00,
2013-06-12 11:01:00,73.0,62.0,-100.00,East,85,4.0,9.0,67,0.00,,,-99.99,,2013-06-12 15:01:00,
2013-06-12 11:12:00,74.0,62.0,-100.00,East,100,2.0,7.0,66,0.00,,,-99.99,,2013-06-12 15:12:00,
2013-06-12 11:23:00,74.0,62.0,-100.00,WNW,285,2.0,6.0,66,0.00,,,-99.99,,2013-06-12 15:23:00,
2013-06-12 11:33:00,75.0,62.0,-100.00,SW,225,2.0,6.0,65,0.00,,,-99.99,,2013-06-12 15:33:00,
2013-06-12 11:43:00,75.0,63.0,-100.00,East,85,1.0,6.0,65,0.00,,,-99.99,,2013-06-12 15:43:00,
2013-06-12 11:52:00,74.0,62.0,-100.00,ESE,110,3.0,6.0,66,1.10,,,-99.99,,2013-06-12 15:52:00,
2013-06-12 12:02:00,74.0,62.0,-100.00,ESE,110,3.0,6.0,66,1.10,,,-99.99,,2013-06-12 16:02:00,
2013-06-12 12:12:00,74.0,64.0,-100.00,SE,135,2.0,7.0,70,0.00,,,-99.99,,2013-06-12 16:12:00,
2013-06-12 12:22:00,74.0,64.0,-100.00,NE,40,4.0,7.0,69,0.00,,,-99.99,,2013-06-12 16:22:00,
2013-06-12 12:33:00,73.0,64.0,-100.00,NE,40,7.0,9.0,72,0.00,,,-99.99,,2013-06-12 16:33:00,
2013-06-12 12:43:00,74.0,64.0,-100.00,ENE,60,2.0,9.0,71,0.00,,,-99.99,,2013-06-12 16:43:00,
2013-06-12 12:52:00,75.0,64.0,-100.00,East,85,1.0,5.0,70,0.00,,,-99.99,,2013-06-12 16:52:00,
2013-06-12 13:01:00,75.0,64.0,-100.00,East,85,1.0,5.0,70,0.00,,,-99.99,,2013-06-12 17:01:00,
2013-06-12 13:12:00,73.0,64.0,-100.00,NNE,30,6.0,10.0,73,0.00,,,-99.99,,2013-06-12 17:12:00,
2013-06-12 13:23:00,75.0,64.0,-100.00,NE,40,4.0,9.0,70,0.00,,,-99.99,,2013-06-12 17:23:00,
2013-06-12 13:33:00,77.0,64.0,-100.00,SE,140,4.0,9.0,63,0.00,,,-99.99,,2013-06-12 17:33:00,
2013-06-12 13:42:00,78.0,64.0,-100.00,SSE,155,4.0,12.0,62,0.00,,,-99.99,,2013-06-12 17:42:00,
2013-06-12 13:52:00,78.0,63.0,-100.00,SSE,165,10.0,16.0,59,0.00,,,-99.99,,2013-06-12 17:52:00,
2013-06-12 14:02:00,78.0,63.0,-100.00,SSE,165,10.0,16.0,59,0.00,,,-99.99,,2013-06-12 18:02:00,
2013-06-12 14:12:00,79.0,63.0,-100.00,SSE,165,8.0,20.0,59,0.00,,,-99.99,,2013-06-12 18:12:00,
2013-06-12 14:22:00,79.0,63.0,-100.00,South,185,8.0,15.0,57,0.00,,,-99.99,,2013-06-12 18:22:00,
2013-06-12 14:33:00,80.0,63.0,-100.00,SSE,160,9.0,14.0,56,0.00,,,-99.99,,2013-06-12 18:33:00,
2013-06-12 14:43:00,80.0,64.0,-100.00,South,190,1.0,12.0,57,0.00,,,-99.99,,2013-06-12 18:43:00,
2013-06-12 14:53:00,81.0,64.0,-100.00,South,175,8.0,12.0,56,0.00,,,-99.99,,2013-06-12 18:53:00,
2013-06-12 15:01:00,81.0,64.0,-100.00,South,175,8.0,12.0,56,0.00,,,-99.99,,2013-06-12 19:01:00,
2013-06-12 15:11:00,81.0,64.0,-100.00,SSE,160,8.0,14.0,54,0.00,,,-99.99,,2013-06-12 19:11:00,
2013-06-12 15:22:00,82.0,64.0,-100.00,SSW,200,6.0,12.0,55,0.00,,,-99.99,,2013-06-12 19:22:00,
2013-06-12 15:32:00,82.0,64.0,-100.00,West,260,4.0,9.0,54,0.00,,,-99.99,,2013-06-12 19:32:00,
2013-06-12 15:42:00,82.0,64.0,-100.00,WSW,245,4.0,12.0,54,0.00,,,-99.99,,2013-06-12 19:42:00,
2013-06-12 15:52:00,82.0,64.0,-100.00,SSW,210,4.0,7.0,54,0.00,,,-99.99,,2013-06-12 19:52:00,
2013-06-12 16:01:00,82.0,64.0,-100.00,SSW,210,4.0,7.0,54,0.00,,,-99.99,,2013-06-12 20:01:00,
2013-06-12 16:11:00,77.0,65.0,-100.00,NE,40,11.0,17.0,67,0.00,,,-99.99,,2013-06-12 20:11:00,
2013-06-12 16:22:00,73.0,66.0,-100.00,NE,35,10.0,17.0,81,0.00,,,-99.99,,2013-06-12 20:22:00,
2013-06-12 16:32:00,74.0,67.0,-100.00,ENE,70,2.0,13.0,77,0.00,,,-99.99,,2013-06-12 20:32:00,
2013-06-12 16:42:00,76.0,67.0,-100.00,East,95,6.0,8.0,74,0.00,,,-99.99,,2013-06-12 20:42:00,
2013-06-12 16:54:00,76.0,67.0,-100.00,ENE,70,5.0,10.0,74,0.00,,,-99.99,,2013-06-12 20:54:00,
2013-06-12 17:01:00,76.0,67.0,-100.00,ENE,70,5.0,10.0,74,0.00,,,-99.99,,2013-06-12 21:01:00,
2013-06-12 17:12:00,76.0,68.0,-100.00,East,85,4.0,11.0,78,0.55,,,-99.99,,2013-06-12 21:12:00,
2013-06-12 17:22:00,76.0,68.0,-100.00,NE,50,7.0,9.0,77,0.00,,,-99.99,,2013-06-12 21:22:00,
2013-06-12 17:33:00,75.0,68.0,-100.00,North,0,7.0,12.0,78,0.00,,,-99.99,,2013-06-12 21:33:00,
2013-06-12 17:43:00,75.0,68.0,-100.00,North,10,7.0,12.0,79,1.10,,,-99.99,,2013-06-12 21:43:00,
2013-06-12 17:52:00,73.0,68.0,-100.00,North,355,9.0,18.0,84,1.69,,,-99.99,,2013-06-12 21:52:00,
2013-06-12 18:01:00,73.0,68.0,-100.00,North,355,9.0,18.0,84,1.69,,,-99.99,,2013-06-12 22:01:00,
2013-06-12 18:11:00,72.0,67.0,-100.00,NNE,20,9.0,12.0,83,0.00,,,-99.99,,2013-06-12 22:11:00,
2013-06-12 18:22:00,72.0,67.0,-100.00,NNE,25,9.0,14.0,83,0.00,,,-99.99,,2013-06-12 22:22:00,
2013-06-12 18:32:00,71.0,66.0,-100.00,NNE,30,13.0,17.0,84,0.00,,,-99.99,,2013-06-12 22:32:00,
2013-06-12 18:43:00,71.0,66.0,-100.00,NE,35,12.0,19.0,86,0.00,,,-99.99,,2013-06-12 22:43:00,
2013-06-12 18:52:00,70.0,66.0,-100.00,NE,35,9.0,17.0,87,0.00,,,-99.99,,2013-06-12 22:52:00,
2013-06-12 19:02:00,71.0,66.0,-100.00,NNE,30,11.0,15.0,87,0.00,,,-99.99,,2013-06-12 23:02:00,
2013-06-12 19:12:00,71.0,67.0,-100.00,NE,40,10.0,15.0,86,0.00,,,-99.99,,2013-06-12 23:12:00,
2013-06-12 19:22:00,71.0,66.0,-100.00,NE,40,11.0,17.0,84,0.00,,,-99.99,,2013-06-12 23:22:00,
2013-06-12 19:32:00,70.0,66.0,-100.00,NE,50,9.0,17.0,86,0.00,,,-99.99,,2013-06-12 23:32:00,
2013-06-12 19:42:00,70.0,66.0,-100.00,NE,50,9.0,16.0,87,0.00,,,-99.99,,2013-06-12 23:42:00,
2013-06-12 19:52:00,70.0,66.0,-100.00,NE,45,10.0,16.0,87,0.00,,,-99.99,,2013-06-12 23:52:00,
2013-06-12 20:01:00,70.0,65.0,-100.00,NE,50,13.0,19.0,85,0.00,,,-99.99,,2013-06-13 00:01:00,
2013-06-12 20:12:00,69.0,65.0,-100.00,NE,45,13.0,21.0,85,0.00,,,-99.99,,2013-06-13 00:12:00,
2013-06-12 20:22:00,69.0,64.0,-100.00,ENE,65,11.0,19.0,83,0.00,,,-99.99,,2013-06-13 00:22:00,
2013-06-12 20:32:00,69.0,64.0,-100.00,ENE,70,12.0,19.0,83,0.00,,,-99.99,,2013-06-13 00:32:00,
2013-06-12 20:42:00,69.0,64.0,-100.00,ENE,65,9.0,17.0,83,0.00,,,-99.99,,2013-06-13 00:42:00,
2013-06-12 20:52:00,69.0,64.0,-100.00,ENE,70,11.0,17.0,84,0.00,,,-99.99,,2013-06-13 00:52:00,
2013-06-12 21:01:00,69.0,64.0,-100.00,ENE,60,9.0,15.0,85,0.00,,,-99.99,,2013-06-13 01:01:00,
2013-06-12 21:12:00,69.0,64.0,-100.00,East,80,6.0,14.0,85,0.00,,,-99.99,,2013-06-13 01:12:00,
2013-06-12 21:22:00,69.0,64.0,-100.00,ENE,70,7.0,13.0,85,0.00,,,-99.99,,2013-06-13 01:22:00,
2013-06-12 21:32:00,69.0,64.0,-100.00,ENE,70,7.0,13.0,85,0.00,,,-99.99,,2013-06-13 01:32:00,
2013-06-12 21:43:00,68.0,64.0,-100.00,East,85,5.0,14.0,86,0.00,,,-99.99,,2013-06-13 01:43:00,
2013-06-12 21:53:00,68.0,64.0,-100.00,East,80,7.0,11.0,87,0.00,,,-99.99,,2013-06-13 01:53:00,
2013-06-12 22:02:00,68.0,64.0,-100.00,East,80,7.0,11.0,87,0.00,,,-99.99,,2013-06-13 02:02:00,
2013-06-12 22:12:00,68.0,64.0,-100.00,East,80,6.0,7.0,86,0.00,,,-99.99,,2013-06-13 02:12:00,
2013-06-12 22:22:00,68.0,64.0,-100.00,East,80,9.0,12.0,86,0.00,,,-99.99,,2013-06-13 02:22:00,
2013-06-12 22:33:00,69.0,64.0,-100.00,East,85,4.0,12.0,87,2.83,,,-99.99,,2013-06-13 02:33:00,
2013-06-12 22:43:00,69.0,64.0,-100.00,East,85,4.0,12.0,87,2.83,,,-99.99,,2013-06-13 02:43:00,
2013-06-12 22:52:00,69.0,64.0,-100.00,NE,55,13.0,20.0,86,0.00,,,-99.99,,2013-06-13 02:52:00,
2013-06-12 23:02:00,69.0,64.0,-100.00,NE,55,8.0,16.0,84,0.00,,,-99.99,,2013-06-13 03:02:00,
2013-06-12 23:12:00,69.0,64.0,-100.00,NE,55,8.0,16.0,84,0.00,,,-99.99,,2013-06-13 03:12:00,
2013-06-12 23:22:00,69.0,64.0,-100.00,ENE,65,12.0,17.0,83,0.00,,,-99.99,,2013-06-13 03:22:00,
2013-06-12 23:33:00,69.0,64.0,-100.00,ENE,65,12.0,17.0,85,0.00,,,-99.99,,2013-06-13 03:33:00,
2013-06-12 23:43:00,68.0,64.0,-100.00,ENE,70,11.0,16.0,86,1.69,,,-99.99,,2013-06-13 03:43:00,
2013-06-12 23:52:00,68.0,64.0,-100.00,ENE,60,11.0,19.0,87,1.69,,,-99.99,,2013-06-13 03:52:00,